Regional Weather Roundup
Issued by NWS

Home | Current Version | Previous Version | Text Only | Print | Product List | Glossary On
Versions: 1 2 3 4 5 6 7 8 9 10 11 12 13 14 15 16 17 18 19 20 21 22 23 24 25 26 27 28 29 30 31 32 33 34 35 36 37 38 39 40 41 42 43 44 45 46 47 48 49 50
696
ASUS44 KLIX 291210
RWRLA
LOUISIANA WEATHER ROUNDUP
NATIONAL WEATHER SERVICE NEW ORLEANS LA
700 AM CDT TUE JUL 29 2014

NOTE: "FAIR" INDICATES FEW OR NO CLOUDS BELOW 12,000 FEET WITH NO
      SIGNIFICANT WEATHER AND/OR OBSTRUCTIONS TO VISIBILITY.
      SKY/WX - SKY CONDITION AND SIGNIFICANT WEATHER.
      TMP - AIR TEMPERATURE.    DP   - DEWPOINT TEMPERATURE.
      RH  - RELATIVE HUMIDITY.  PRES - PRESSURE.
      HX  - HEAT INDEX.         WCI  - WIND CHILL INDEX.

*  THESE STATIONS ARE NOT NWS OR FAA STATIONS AND ARE NOT UNDER
   NWS QUALITY CONTROL.

LAZ040-048-061>063-065-066-069-291300-
SOUTHEAST LOUISIANA

CITY           SKY/WX    TMP DP  RH WIND       PRES   REMARKS
N.O. AUDUBON     N/A     80  70  70 MISG        N/A
6HR MIN TEMP:  79; 6HR MAX TEMP:  85;

N.O. INTL ARPT CLOUDY    80  68  66 NE9       30.03S
6HR MIN TEMP:  79; 6HR MAX TEMP:  84;

N.O. LAKEFRONT MOCLDY    80  69  69 NE14      30.03S
6HR MIN TEMP:  80; 6HR MAX TEMP:  85;

N.O. DOWNTOWN* FAIR      81  66  61 N5        30.03S
6HR MIN TEMP:  81; 6HR MAX TEMP:  84;

SLIDELL        PTCLDY    72  69  90 N6        30.03S
6HR MIN TEMP:  72; 6HR MAX TEMP:  78;

BATON ROUGE    CLOUDY    74  70  87 CALM      30.05S
6HR MIN TEMP:  73; 6HR MAX TEMP:  77;

BOOTHVILLE     MOCLDY    81  72  74 NE7       30.02R
6HR MIN TEMP:  78; 6HR MAX TEMP:  84; 6HR PCP:  0.34;

BELLE CHASSE   MOCLDY    78  67  68 N5        30.03R
6HR MIN TEMP:  78; 6HR MAX TEMP:  84;

BOGALUSA*      FAIR      71  67  85 N3        30.06S
6HR MIN TEMP:  70; 6HR MAX TEMP:  78;

GALLIANO*      NOT AVBL
NEW ROADS*     CLOUDY    74  72  93 CALM      30.07R
6HR MIN TEMP:  73; 6HR MAX TEMP:  75;

GONZALES*      CLOUDY    75  74  95 N3        30.05R
6HR MIN TEMP:  75; 6HR MAX TEMP:  77;

HAMMOND*       MOCLDY    72  68  88 N3        30.06S
HOUMA*         PTCLDY    77  72  83 N9        30.03R
PORT FOURCHON* PTSUNNY   81  75  83 N7        30.04R

$$

LAZ041-044-053-054-291300-
SOUTHWEST LOUISIANA

CITY           SKY/WX    TMP DP  RH WIND       PRES   REMARKS
LAKE CHARLES   CLOUDY    78  73  84 N5        30.07R
6HR MIN TEMP:  78; 6HR MAX TEMP:  82;

LAFAYETTE      NOT AVBL
PATTERSON      CLOUDY    77  75  94 CALM      30.09R
6HR MIN TEMP:  75; 6HR MAX TEMP:  79;

SALT POINT       N/A     79  76  90 CALM      30.05R
6HR MIN TEMP:  77; 6HR MAX TEMP:  82;

NEW IBERIA     CLOUDY    78  75  90 NW6       30.07R
6HR MIN TEMP:  77; 6HR MAX TEMP:  80;

CHENAULT AIRPK MOCLDY    77  73  88 N8        30.06R

$$

LAZ027-028-291300-
CENTRAL LOUISIANA

CITY           SKY/WX    TMP DP  RH WIND       PRES   REMARKS
FORT POLK      MOCLDY    74  71  91 CALM      30.08R
6HR MIN TEMP:  74; 6HR MAX TEMP:  76;

ALEXANDRIA INT PTCLDY    72  70  93 CALM      30.06R
6HR MIN TEMP:  71; 6HR MAX TEMP:  77;

ALEXANDRIA     PTCLDY    71  68  90 CALM      30.08S FOG
6HR MIN TEMP:  70; 6HR MAX TEMP:  77;


$$

LAZ001-002-291300-
NORTHWEST LOUISIANA

CITY           SKY/WX    TMP DP  RH WIND       PRES   REMARKS
SHREVEPORT     PTCLDY    74  69  85 N3        30.10R
6HR MIN TEMP:  73; 6HR MAX TEMP:  79;

BARKSDALE AFB  PTCLDY    71  68  89 N2        30.10R
6HR MIN TEMP:  71; 6HR MAX TEMP:  76;

DTN SHREVEPORT PTCLDY    71  67  87 CALM      30.10R
6HR MIN TEMP:  71; 6HR MAX TEMP:  77;


$$

LAZ014-016-291300-
NORTHEAST LOUISIANA

CITY           SKY/WX    TMP DP  RH WIND       PRES   REMARKS
MONROE         CLEAR     68  66  93 CALM      30.09R
6HR MIN TEMP:  66; 6HR MAX TEMP:  76;

TALLULAH       CLEAR     64  62  93 CALM      30.08R
6HR MIN TEMP:  61; 6HR MAX TEMP:  73;


$$




USA.gov is the U.S. government's official web portal to all federal, state and local government web resources and services.